EWG78C EDDL-EETN

Flight info

Callsign EWG78C
Flight time N/A
Altitude 37000
Route MEVEL4T/23L MEVEL Y850 BASUM DCT LOMPU DCT NEREN DCT OSTOT DCT OSMUR
Aircraft A21N/M-SDE2E3FGHIRWXY/LB1

Departure

Time N/A
Airport Düsseldorf Airport (EDDL)

Arrival

Time 2026-05-04 18:25
Airport Lennart Meri Tallinn Airport (EETN)
Time Latitude Longitude Altitude Speed Heading
2026-05-04 17:54 58.67640 20.87305 36730 ft 486 kts 43°
2026-05-04 17:54 58.69932 20.92036 36733 ft 483 kts 43°
2026-05-04 17:55 58.74517 21.01570 36756 ft 486 kts 44°
2026-05-04 17:55 58.79043 21.11061 36353 ft 480 kts 44°
2026-05-04 17:56 58.81310 21.15819 36069 ft 482 kts 44°
2026-05-04 17:56 58.83572 21.20587 35819 ft 482 kts 44°
2026-05-04 17:56 58.85839 21.25378 35571 ft 482 kts 43°
2026-05-04 17:56 58.88074 21.30098 35323 ft 482 kts 43°
2026-05-04 17:57 58.90334 21.34882 35081 ft 482 kts 43°
2026-05-04 17:57 58.92587 21.39670 34840 ft 480 kts 43°
2026-05-04 17:57 58.94829 21.44441 34575 ft 477 kts 44°
2026-05-04 17:57 58.97061 21.49199 34376 ft 477 kts 44°
2026-05-04 17:58 58.99287 21.53957 34145 ft 476 kts 44°
2026-05-04 17:58 59.01510 21.58730 33908 ft 474 kts 44°
2026-05-04 17:58 59.03712 21.63465 33663 ft 472 kts 44°
2026-05-04 17:58 59.05908 21.68192 33389 ft 470 kts 44°
2026-05-04 17:59 59.08092 21.72899 33114 ft 468 kts 44°
2026-05-04 17:59 59.10262 21.77584 32840 ft 465 kts 44°
2026-05-04 17:59 59.14560 21.86893 32073 ft 457 kts 44°
2026-05-04 18:00 59.16646 21.91416 31528 ft 452 kts 43°
2026-05-04 18:00 59.18736 21.95954 30997 ft 448 kts 44°
2026-05-04 18:00 59.20802 22.00455 30442 ft 444 kts 44°
2026-05-04 18:00 59.22852 22.04938 29930 ft 439 kts 43°
2026-05-04 18:01 59.24876 22.09362 29321 ft 436 kts 43°
2026-05-04 18:01 59.26824 22.13901 28727 ft 435 kts 52°
2026-05-04 18:01 59.28198 22.19196 28172 ft 442 kts 71°
2026-05-04 18:02 59.28617 22.30942 27176 ft 431 kts 97°
2026-05-04 18:02 59.28367 22.36762 26652 ft 426 kts 97°
2026-05-04 18:02 59.28152 22.42518 26079 ft 423 kts 96°
2026-05-04 18:02 59.27971 22.48255 25580 ft 419 kts 96°
2026-05-04 18:03 59.27808 22.53908 25101 ft 414 kts 96°
2026-05-04 18:03 59.27652 22.59504 24612 ft 410 kts 96°
2026-05-04 18:03 59.27501 22.64974 24123 ft 407 kts 96°
2026-05-04 18:03 59.27343 22.70546 23625 ft 404 kts 96°
2026-05-04 18:04 59.27187 22.76014 23087 ft 401 kts 96°
2026-05-04 18:04 59.27030 22.81372 22538 ft 398 kts 96°
2026-05-04 18:04 59.26711 22.92058 21527 ft 390 kts 96°
2026-05-04 18:05 59.26552 22.97315 21028 ft 386 kts 96°
2026-05-04 18:05 59.26388 23.02531 20536 ft 383 kts 96°
2026-05-04 18:05 59.26224 23.07700 20089 ft 379 kts 96°
2026-05-04 18:05 59.26061 23.12819 19619 ft 376 kts 97°
2026-05-04 18:06 59.25734 23.22940 18792 ft 370 kts 97°
2026-05-04 18:06 59.25570 23.27958 18381 ft 368 kts 97°
2026-05-04 18:06 59.25405 23.32937 17958 ft 366 kts 97°
2026-05-04 18:07 59.25294 23.36228 17651 ft 365 kts 97°
2026-05-04 18:07 59.25124 23.41162 17217 ft 363 kts 97°
2026-05-04 18:07 59.24957 23.46071 16795 ft 361 kts 96°
2026-05-04 18:07 59.25038 23.50962 16401 ft 360 kts 87°
2026-05-04 18:08 59.25284 23.55816 16015 ft 357 kts 86°
2026-05-04 18:08 59.25539 23.60618 15636 ft 354 kts 86°
2026-05-04 18:08 59.25787 23.65380 15259 ft 351 kts 86°
2026-05-04 18:08 59.26031 23.70104 14889 ft 348 kts 86°
2026-05-04 18:09 59.26497 23.79380 14161 ft 342 kts 86°
2026-05-04 18:09 59.26953 23.88574 13447 ft 336 kts 86°
2026-05-04 18:10 59.27173 23.93094 13057 ft 333 kts 86°
2026-05-04 18:10 59.27384 23.97558 12704 ft 329 kts 86°
2026-05-04 18:10 59.27593 24.02012 12367 ft 326 kts 86°
2026-05-04 18:10 59.27800 24.06414 12032 ft 324 kts 86°
2026-05-04 18:11 59.28003 24.10792 11685 ft 323 kts 86°
2026-05-04 18:11 59.28204 24.15158 11334 ft 320 kts 86°
2026-05-04 18:11 59.28405 24.19485 10984 ft 319 kts 86°
2026-05-04 18:11 59.28605 24.23789 10643 ft 317 kts 85°
2026-05-04 18:12 59.28802 24.28080 10316 ft 315 kts 85°
2026-05-04 18:12 59.28995 24.32330 10029 ft 310 kts 85°
2026-05-04 18:12 59.29181 24.36499 9817 ft 306 kts 85°
2026-05-04 18:12 59.29363 24.40561 9566 ft 305 kts 85°
2026-05-04 18:13 59.29548 24.44709 9229 ft 301 kts 85°
2026-05-04 18:13 59.29720 24.48756 8823 ft 297 kts 86°
2026-05-04 18:13 59.30056 24.56763 7912 ft 292 kts 85°
2026-05-04 18:14 59.30222 24.60699 7515 ft 289 kts 85°
2026-05-04 18:14 59.30383 24.64598 7121 ft 285 kts 85°
2026-05-04 18:14 59.30544 24.68443 6828 ft 282 kts 85°
2026-05-04 18:15 59.30861 24.76068 6391 ft 279 kts 85°
2026-05-04 18:15 59.31167 24.83592 5991 ft 276 kts 84°
2026-05-04 18:15 59.31318 24.87336 5782 ft 275 kts 84°
2026-05-04 18:16 59.31466 24.91003 5577 ft 274 kts 85°
2026-05-04 18:16 59.31617 24.94784 5368 ft 273 kts 85°
2026-05-04 18:16 59.31764 24.98486 5164 ft 271 kts 85°
2026-05-04 18:17 59.32053 25.05768 4757 ft 269 kts 85°
2026-05-04 18:17 59.32193 25.09340 4551 ft 258 kts 85°
2026-05-04 18:17 59.32462 25.16290 4131 ft 254 kts 85°
2026-05-04 18:18 59.32614 25.19720 3926 ft 252 kts 79°
2026-05-04 18:18 59.33267 25.22801 3694 ft 238 kts 45°
2026-05-04 18:18 59.34559 25.24434 3466 ft 212 kts
2026-05-04 18:18 59.35979 25.24400 3265 ft 203 kts 348°
2026-05-04 18:19 59.38801 25.24018 2992 ft 203 kts 351°
2026-05-04 18:19 59.40106 25.23179 2946 ft 197 kts 323°
2026-05-04 18:19 59.40931 25.21122 2966 ft 193 kts 291°
2026-05-04 18:20 59.41195 25.18550 2994 ft 192 kts 276°
2026-05-04 18:20 59.41231 25.15973 2993 ft 188 kts 270°
2026-05-04 18:20 59.41237 25.13514 2851 ft 173 kts 271°
2026-05-04 18:20 59.41244 25.11178 2637 ft 171 kts 271°
2026-05-04 18:21 59.41250 25.08860 2407 ft 167 kts 271°
2026-05-04 18:21 59.41256 25.06640 2179 ft 159 kts 271°
2026-05-04 18:21 59.41262 25.04545 1979 ft 146 kts 271°
2026-05-04 18:21 59.41268 25.02667 1780 ft 126 kts 270°
2026-05-04 18:22 59.41272 25.01014 1614 ft 119 kts 270°
2026-05-04 18:22 59.41277 24.99384 1481 ft 120 kts 270°
2026-05-04 18:22 59.41282 24.97758 1315 ft 119 kts 270°
2026-05-04 18:22 59.41286 24.96132 1142 ft 119 kts 270°
2026-05-04 18:23 59.41291 24.94497 971 ft 120 kts 270°
2026-05-04 18:23 59.41296 24.92867 808 ft 119 kts 270°
2026-05-04 18:23 59.41301 24.91215 653 ft 123 kts 269°
2026-05-04 18:23 59.41312 24.89536 509 ft 123 kts 269°
2026-05-04 18:24 59.41307 24.87842 327 ft 126 kts 268°
2026-05-04 18:24 59.41315 24.86129 176 ft 123 kts 269°
2026-05-04 18:24 59.41319 24.84627 165 ft 90 kts 271°
2026-05-04 18:24 59.41319 24.83668 169 ft 60 kts 270°
2026-05-04 18:25 59.41322 24.82924 166 ft 50 kts 271°
2026-05-04 18:25 59.41330 24.82243 167 ft 50 kts 269°
2026-05-04 18:25 59.41329 24.81558 168 ft 50 kts 269°
2026-05-04 18:25 59.41330 24.80944 165 ft 33 kts 270°
2026-05-04 18:26 59.41339 24.80698 165 ft 16 kts 293°
2026-05-04 18:26 59.41401 24.80550 167 ft 8 kts 315°
2026-05-04 18:26 59.41452 24.80472 167 ft 11 kts 348°
2026-05-04 18:26 59.41515 24.80450 167 ft 8 kts 313°
2026-05-04 18:27 59.41529 24.80329 167 ft 7 kts 269°
2026-05-04 18:27 59.41548 24.80275 167 ft 6 kts 352°
2026-05-04 18:27 59.41574 24.80277 167 ft 3 kts
2026-05-04 18:27 59.41582 24.80277 167 ft 1 kts
2026-05-04 18:28 59.41583 24.80277 167 ft 0 kts